{"data":{"norad_id":69624,"epoch":"2026-09-20T03:10:16.508928Z","epoch_age_seconds":60744,"freshness":"FRESH","line1":"1 69624U 26140AJ  26263.13213552  .00001611  00000+0  24036-3 0  9997","line2":"2 69624  51.9027 313.2992 0000629  90.4493 269.6541 14.79916968 15658","mean_motion":14.79916968,"eccentricity":6.29e-5,"inclination_deg":51.9027,"raan_deg":313.2992,"arg_perigee_deg":90.4493,"mean_anomaly_deg":269.6541,"bstar":0.00024036,"rev_number":1565,"period_min":97.302756244903,"perigee_km":629.14545289142,"apogee_km":630.02702447484,"semimajor_km":7007.7232386831,"source":"CELESTRAK","updated_at":"2026-09-20T09:00:25.031320Z"}}